Regional Weather Roundup
Issued by NWS Albany, NY

Home | Current Version | Previous Version | Graphics & Text | Print | Product List | Glossary On
Versions: 1 2 3 4 5 6 7 8 9 10 11 12 13 14 15 16 17 18 19 20 21 22 23 24 25 26 27 28
000
ASUS41 KALY 240710
RWRALY

NEW YORK STATE HOURLY WEATHER ROUNDUP
NATIONAL WEATHER SERVICE ALBANY NY
200 AM EST FRI FEB 24 2017

NOTE: "FAIR" INDICATES FEW OR NO CLOUDS BELOW 12,000 FEET WITH NO
SIGNIFICANT WEATHER AND/OR NO OBSTRUCTIONS TO VISIBILITY.

NYZ032-033-038>043-046>054-057>066-NYZ062>081-082-084-240800-
EAST


CITY           SKY/WX    TMP DP  RH WIND       PRES   REMARKS
ALBANY         MOCLDY    44  41  89 CALM      29.89R
GLENS FALLS    CLOUDY    36  32  85 CALM      29.88R
POUGHKEEPSIE   CLOUDY    49  49 100 CALM      29.87S FOG
NEWBURGH       MOCLDY    55  54  94 CALM      29.89S
MONTGOMERY     FOG       49  48  97 CALM      29.86S VSB 1/2
WHITE PLAINS   MOCLDY    49  46  90 S3        29.90S
ISLIP          CLEAR     48  47  96 SW9       29.93S
NEW YORK CITY  PTCLDY    56  47  71 S8        29.91R
CENTRAL PARK   PTCLDY    60  51  72 VRB5      29.93R
$$

NYZ005>009-017-018-044>046-055-056-240800-
CENTRAL


CITY           SKY/WX    TMP DP  RH WIND       PRES   REMARKS
FULTON         PTCLDY    35  33  92 CALM      29.90R FOG
SYRACUSE       MOCLDY    40  37  89 E5        29.89R
ROME           CLEAR     38  37  97 E5        29.92R WCI  34
ELMIRA         CLOUDY    47  42  83 CALM      29.87S
BINGHAMTON     CLOUDY    48  47  96 CALM      29.87R FOG
MONTICELLO     CLOUDY    48  48 100 CALM      29.90S VSB 1
$$

NYZ026>034-041>043-087-240800-
NORTH


CITY           SKY/WX    TMP DP  RH WIND       PRES   REMARKS
WATERTOWN      CLOUDY    34  34 100 NE3       29.90R
FORT DRUM      NOT AVBL
OGDENSBURG     CLOUDY    40  35  83 CALM      29.91R
MASSENA        CLOUDY    39  36  89 S3        29.93R
SARANAC LAKE   CLOUDY    40  39  97 CALM      29.86R
PLATTSBURGH    MOCLDY    46  37  71 NW6       29.89R
$$

NYZ001>004-010>016-019>021-085-240800-
WEST


CITY           SKY/WX    TMP DP  RH WIND       PRES   REMARKS
NIAGARA FALLS  CLOUDY    42  36  79 NE10      29.87S
BUFFALO        CLOUDY    43  37  79 NE12      29.86S
DUNKIRK        CLOUDY    40  38  93 NE10      29.83F FOG     WCI  33
JAMESTOWN        N/A     52  48  87 S3        29.81F
WELLSVILLE     LGT RAIN  52  49  89 SE7       29.85F FOG
ROCHESTER      CLOUDY    47  39  74 NE6       29.90R
PENN YAN       CLOUDY    47  40  76 CALM      29.89R
$$

             KEY
       WCI = WIND CHILL INDEX
       VSB = VISIBILITY
       HX  = HEAT INDEX
$$




USA.gov is the U.S. government's official web portal to all federal, state and local government web resources and services.